PCSAT (NO-44)

Last updated on Sun Aug 09 2026 00:03:15 GMT+0000 (Coordinated Universal Time)

1 26931U 01043C 26220.40335286 .00000027 00000+0 41136-4 0 9999 2 26931 67.0506 109.2172 0005686 268.7859 91.2592 14.31973263297925
UTC large
Height (km)
Speed (km/s)
/
Latitude / Longitude
Inclination (degrees)
Orbital Period (minutes)
Azimuth
Elevation
Range (km)
Doppler Factor

Next 0 passes for location: London (51.5072 / 0.1276)

No passes found over London.
PCSAT (NO-44)